Date,TemperatureHighF,TemperatureAvgF,TemperatureLowF,DewpointHighF,DewpointAvgF,DewpointLowF,HumidityHigh,HumidityAvg,HumidityLow,PressureMaxIn,PressureMinIn,WindSpeedMaxMPH,WindSpeedAvgMPH,GustSpeedMaxMPH,PrecipitationSumIn
2013-1-1,56.8,48.6,39.4,53.2,43.4,31.8,89,82,72,0.00,40.00,6,1,8,0.08
2013-1-2,47.1,39.3,32.2,31.8,28.6,24.8,74,66,51,0.00,40.00,6,1,8,0.00
2013-1-3,44.8,39.4,30.7,30.9,28.3,24.3,78,65,56,0.00,40.00,9,1,9,0.00
2013-1-4,41.4,38.1,34.9,35.8,32.8,28.9,86,81,62,0.00,40.00,4,0,4,0.19
2013-1-5,66.6,47.5,37.2,46.8,37.8,30.7,88,72,42,0.00,40.00,4,0,4,0.04
2013-1-6,65.3,46.4,33.1,35.8,29.7,25.0,82,56,27,0.00,40.00,8,1,8,0.00
2013-1-7,55.6,42.7,-22.0,36.7,30.5,-34.4,77,63,46,0.00,40.00,9,1,9,0.00
2013-1-8,53.4,48.8,45.0,50.5,45.2,36.1,91,87,71,0.00,40.00,8,1,8,1.04
2013-1-9,55.9,53.5,50.2,53.6,50.8,47.3,93,90,87,0.00,40.00,17,2,23,1.98
2013-1-10,69.4,53.9,43.2,48.9,44.2,37.9,91,72,46,0.00,40.00,9,1,9,0.00
2013-1-11,74.3,58.9,42.8,60.3,51.2,37.8,90,77,56,0.00,40.00,10,1,10,0.00
2013-1-12,71.8,62.8,45.3,65.1,56.0,32.7,93,79,56,0.00,40.00,9,2,9,0.00
2013-1-13,57.6,44.7,34.5,32.7,28.2,23.4,65,53,36,0.00,40.00,19,2,19,0.00
2013-1-14,51.4,39.8,30.7,29.1,24.4,19.0,64,54,40,0.00,40.00,12,2,13,0.00
2013-1-15,40.1,36.8,32.5,32.0,27.8,19.8,75,70,59,0.00,40.00,12,2,12,0.00
2013-1-16,60.1,42.2,27.1,29.5,21.7,17.6,69,47,24,0.00,40.00,11,1,11,0.00
2013-1-17,72.0,49.8,32.7,40.8,30.9,21.9,75,51,27,0.00,40.00,7,1,7,0.00
2013-1-18,69.1,49.3,31.8,38.3,31.3,24.6,76,53,30,0.00,40.00,8,1,8,0.00
2013-1-19,71.8,51.0,37.2,47.8,37.1,28.8,83,61,37,0.00,40.00,9,1,9,0.00
2013-1-20,80.4,56.4,36.5,49.6,38.8,30.4,79,56,24,0.00,40.00,5,0,5,0.00
2013-1-21,76.6,55.4,40.3,56.3,43.4,34.2,85,66,41,0.00,40.00,5,0,5,0.00
2013-1-22,75.0,58.2,44.8,51.1,43.8,37.4,76,60,38,0.00,40.00,11,1,11,0.00
2013-1-23,77.5,60.7,46.0,58.1,49.9,39.7,88,69,48,0.00,40.00,8,1,8,0.00
2013-1-24,85.8,64.2,49.8,63.5,53.2,44.8,91,70,40,0.00,40.00,8,1,8,0.00
2013-1-25,82.9,67.1,55.0,62.6,56.3,48.6,89,70,46,0.00,40.00,6,1,6,0.00
2013-1-26,64.2,56.7,50.5,58.1,51.1,45.5,89,82,71,0.00,40.00,7,1,7,0.00
2013-1-27,77.2,65.8,57.9,62.2,58.5,54.3,90,78,56,0.00,40.00,12,3,14,0.00
2013-1-28,76.3,69.2,66.2,64.6,63.0,61.9,88,81,64,0.00,40.00,14,3,15,0.00
2013-1-29,81.9,66.9,52.2,64.9,53.9,23.2,91,66,32,0.00,40.00,16,4,16,0.02
2013-1-30,63.7,51.2,36.9,28.6,21.4,15.3,52,32,19,0.00,40.00,16,4,16,0.00
2013-1-31,73.0,51.0,32.4,29.7,23.2,17.8,59,37,17,0.00,40.00,6,1,6,0.00
2013-2-1,73.2,56.4,39.0,45.3,33.9,24.3,65,44,28,0.00,40.00,13,1,13,0.00
2013-2-2,81.5,61.5,43.9,54.9,44.3,36.1,78,55,33,0.00,40.00,8,1,8,0.00
2013-2-3,72.0,58.6,46.8,49.3,40.4,32.5,70,52,27,0.00,40.00,9,2,12,0.00
2013-2-4,80.1,63.1,53.2,59.2,51.9,45.1,85,68,43,0.00,40.00,11,2,11,0.00
2013-2-5,86.2,63.8,43.5,51.8,43.0,37.0,80,52,22,0.00,40.00,6,0,6,0.00
2013-2-6,79.3,65.5,58.8,60.4,53.4,42.8,82,66,50,0.00,40.00,7,1,8,0.00
2013-2-7,88.3,68.6,57.7,63.7,51.3,37.2,89,60,25,0.00,40.00,8,2,11,0.00
2013-2-8,71.2,58.7,46.6,43.0,34.5,27.0,67,43,23,0.00,40.00,11,2,11,0.00
2013-2-9,66.2,57.0,50.5,63.1,50.1,28.6,92,79,39,0.00,40.00,14,2,14,0.00
2013-2-10,69.4,61.2,54.3,63.5,41.7,31.3,93,53,26,0.00,40.00,11,1,13,0.37
2013-2-11,57.7,53.9,48.9,45.5,40.6,35.2,86,62,44,0.00,40.00,11,2,11,0.00
2013-2-12,76.8,57.9,44.2,57.7,42.0,25.7,90,62,24,0.00,40.00,11,2,11,0.02
2013-2-13,71.4,51.4,36.1,39.0,30.7,25.9,75,49,23,0.00,40.00,7,1,7,0.00
2013-2-14,75.6,54.4,35.8,42.4,32.7,27.0,75,48,23,0.00,40.00,8,1,8,0.00
2013-2-15,66.7,50.4,41.9,42.8,34.4,23.9,70,55,37,0.00,40.00,15,2,15,0.00
2013-2-16,72.7,52.0,32.2,34.3,27.1,21.9,68,42,21,0.00,40.00,4,0,9,0.00
2013-2-17,72.3,55.3,36.5,48.7,35.9,25.3,72,50,30,0.00,40.00,18,3,18,0.00
2013-2-18,84.6,66.5,55.0,57.6,43.6,23.5,80,51,15,0.00,40.00,15,3,15,0.00
2013-2-19,65.8,56.3,45.3,31.5,28.5,24.6,50,35,22,0.00,40.00,13,4,13,0.00
2013-2-20,64.8,55.7,51.1,61.7,46.0,22.8,94,74,29,0.00,40.00,13,4,13,0.00
2013-2-21,79.9,65.9,48.7,62.1,41.2,23.5,89,49,16,0.00,40.00,12,3,12,0.02
2013-2-22,66.2,51.9,43.0,37.6,32.1,25.0,72,48,30,0.00,40.00,9,2,9,0.00
2013-2-23,78.6,56.8,37.8,42.3,30.6,24.8,67,41,18,0.00,40.00,9,1,9,0.00
2013-2-24,74.8,58.9,42.1,55.9,44.2,30.4,82,60,41,0.00,40.00,18,3,18,0.00
2013-2-25,63.5,54.3,43.0,56.8,34.0,24.6,82,48,25,0.00,40.00,20,5,20,0.16
2013-2-26,75.7,55.0,37.2,34.0,27.0,21.4,60,38,19,0.00,40.00,7,1,9,0.00
2013-2-27,68.2,53.4,44.4,35.6,25.7,18.5,54,35,24,0.00,40.00,17,2,17,0.00
2013-2-28,67.6,50.9,39.4,34.3,24.6,18.3,54,37,21,0.00,40.00,10,1,10,0.00
2013-3-1,76.5,53.2,32.4,32.4,22.3,14.4,61,34,13,0.00,40.00,13,2,15,0.00
2013-3-2,71.2,53.8,40.5,32.4,27.2,22.1,51,37,23,0.00,40.00,11,1,11,0.00
2013-3-3,77.7,59.3,39.4,36.1,30.3,25.9,60,37,18,0.00,40.00,12,2,12,0.00
2013-3-4,95.2,69.9,53.2,50.5,38.4,24.8,69,38,11,0.00,40.00,7,1,7,0.00
2013-3-5,70.3,56.6,44.4,38.5,24.4,10.2,57,32,15,0.00,40.00,15,3,16,0.00
2013-3-6,65.5,50.2,33.6,22.3,16.3,10.9,48,28,13,0.00,40.00,12,1,12,0.00
2013-3-7,70.7,57.2,41.9,53.2,39.7,17.8,79,53,33,0.00,40.00,18,2,18,0.00
2013-3-8,66.0,61.4,57.4,59.9,57.1,53.1,92,86,79,0.00,40.00,11,3,15,0.00
2013-3-9,73.9,65.0,59.7,64.8,60.6,55.8,91,86,71,0.00,40.00,18,3,18,0.90
2013-3-10,69.1,58.6,46.6,99.9,39.3,29.3,87,51,31,0.00,40.00,15,2,15,0.92
2013-3-11,75.0,54.3,37.2,34.3,30.0,24.6,67,43,21,0.00,40.00,8,1,8,0.00
2013-3-12,83.7,60.0,38.5,37.9,32.3,27.7,72,42,16,0.00,40.00,8,1,9,0.00
2013-3-13,80.2,62.1,45.1,41.7,36.2,31.6,61,40,23,0.00,40.00,12,2,12,0.00
2013-3-14,79.2,63.5,48.0,51.6,43.5,33.8,81,51,32,0.00,40.00,11,2,11,0.00
2013-3-15,82.0,67.1,54.7,54.5,49.1,43.3,83,55,34,0.00,40.00,16,2,16,0.00
2013-3-16,86.4,70.0,56.1,59.0,52.3,48.2,80,57,31,0.00,40.00,14,3,14,0.00
2013-3-17,88.9,72.7,63.1,61.9,57.7,53.2,80,62,34,0.00,40.00,11,2,29,0.00
2013-3-18,93.4,74.6,62.4,62.2,50.1,40.6,85,50,18,0.00,40.00,14,1,14,0.00
2013-3-19,86.7,68.3,49.3,60.4,50.9,40.3,76,56,32,0.00,40.00,11,2,11,0.17
2013-3-20,72.7,61.3,51.8,52.5,42.9,32.9,82,55,26,0.00,40.00,17,3,17,0.35
2013-3-21,72.5,63.9,55.9,57.7,49.5,32.7,77,60,39,0.00,40.00,16,3,16,0.00
2013-3-22,90.1,72.4,61.3,65.8,58.7,49.8,88,65,39,0.00,40.00,13,2,13,0.00
2013-3-23,90.3,66.4,52.3,61.9,50.2,40.6,79,60,21,0.00,40.00,8,1,10,0.00
2013-3-24,65.3,53.7,40.5,52.9,29.9,20.7,70,43,23,0.00,40.00,15,3,15,0.00
2013-3-25,63.7,48.8,36.3,23.5,19.4,15.3,50,33,17,0.00,40.00,14,2,14,0.00
2013-3-26,69.6,52.1,33.8,26.8,22.2,19.0,62,34,17,0.00,40.00,11,1,11,0.00
2013-3-27,68.2,55.2,42.1,45.7,36.2,19.2,67,50,30,0.00,40.00,20,3,20,0.00
2013-3-28,69.6,60.8,53.4,57.7,53.1,45.1,82,76,64,0.00,40.00,15,3,15,0.00
2013-3-29,74.5,65.9,57.0,59.4,55.6,52.9,88,71,54,0.00,40.00,12,2,12,0.00
2013-3-30,82.9,69.1,61.0,63.1,59.0,55.8,91,72,47,0.00,40.00,10,2,10,0.00
2013-3-31,84.6,69.0,59.0,66.0,60.2,53.1,86,74,51,0.00,40.00,12,1,12,0.02
2013-4-1,85.6,69.5,55.8,64.2,57.7,51.8,89,69,43,0.00,40.00,9,1,9,0.00
2013-4-2,72.5,66.1,53.2,63.7,59.8,47.7,90,80,69,0.00,40.00,12,2,12,0.47
2013-4-3,55.2,50.3,46.9,52.3,46.6,42.6,90,87,85,0.00,40.00,11,2,11,0.78
2013-4-4,68.7,53.1,44.2,48.7,42.9,39.4,86,70,45,0.00,40.00,11,1,11,0.00
2013-4-5,78.1,57.3,39.4,52.0,43.6,34.9,86,64,33,0.00,40.00,6,1,6,0.00
2013-4-6,80.4,65.0,50.4,58.6,51.7,43.9,84,64,46,0.00,40.00,12,2,12,0.00
2013-4-7,80.2,68.5,60.4,64.0,59.4,55.2,87,74,56,0.00,40.00,13,2,13,0.00
2013-4-8,75.6,67.9,64.0,66.0,62.4,59.4,87,82,71,0.00,40.00,14,3,14,0.00
2013-4-9,86.2,73.8,66.7,68.2,64.9,62.6,90,75,49,0.00,40.00,12,4,13,0.00
2013-4-10,71.4,56.4,43.3,65.5,46.4,37.4,82,70,53,0.00,40.00,14,3,14,0.00
2013-4-11,74.8,58.1,45.7,41.2,37.4,32.4,69,48,28,0.00,40.00,7,1,7,0.00
2013-4-12,82.9,63.1,44.4,49.1,42.5,37.6,79,51,26,0.00,40.00,9,1,9,0.00
2013-4-13,79.0,65.1,51.4,53.8,47.3,37.2,80,54,34,0.00,40.00,13,2,13,0.00
2013-4-14,91.8,72.5,57.4,64.9,56.4,50.7,89,62,31,0.00,40.00,9,1,9,0.00
2013-4-15,92.1,77.9,66.7,65.3,61.2,55.2,86,60,32,0.00,40.00,11,2,12,0.00
2013-4-16,89.4,76.3,66.4,68.0,64.0,60.4,83,67,46,0.00,40.00,57,3,57,0.00
2013-4-17,79.3,73.5,71.1,69.3,67.8,66.6,89,82,69,0.00,40.00,13,4,13,0.00
2013-4-18,72.7,63.1,52.3,69.3,49.7,33.3,91,64,39,0.00,40.00,11,3,13,0.08
2013-4-19,73.0,57.2,44.4,33.4,30.0,25.9,56,38,21,0.00,40.00,12,1,12,0.00
2013-4-20,74.5,58.1,40.6,43.0,33.2,30.2,69,43,23,0.00,40.00,13,2,13,0.00
2013-4-21,78.6,64.3,53.4,55.0,50.3,43.0,80,62,43,0.00,40.00,12,2,12,0.00
2013-4-22,82.2,68.9,59.2,61.0,56.6,53.4,85,67,45,0.00,40.00,10,2,12,0.00
2013-4-23,73.6,63.8,49.6,64.2,54.1,38.5,86,71,52,0.00,40.00,13,2,13,0.00
2013-4-24,61.9,51.7,43.7,38.8,35.4,32.7,72,55,38,0.00,40.00,12,2,12,0.00
2013-4-25,67.3,59.6,54.0,45.9,41.2,37.4,60,51,37,0.00,40.00,11,1,11,0.00
2013-4-26,75.2,66.4,57.9,65.1,58.8,44.8,91,77,55,0.00,40.00,11,2,11,0.00
2013-4-27,83.1,72.9,66.9,66.7,64.1,60.3,89,75,52,0.00,40.00,13,1,13,0.02
2013-4-28,86.2,73.0,62.4,62.8,59.9,55.0,90,66,38,0.00,40.00,9,1,9,0.08
2013-4-29,86.4,72.4,64.6,63.5,60.4,57.6,88,69,40,0.00,40.00,10,1,10,0.98
2013-4-30,84.0,70.2,60.1,66.0,61.3,56.5,90,75,50,0.00,40.00,6,1,7,0.98
2013-5-1,86.7,74.7,66.7,68.5,64.2,60.4,85,71,50,0.00,40.00,10,1,10,0.00
2013-5-2,73.0,52.3,46.6,66.0,45.0,35.8,87,76,66,0.00,40.00,13,2,13,0.89
2013-5-3,70.3,54.5,42.6,37.9,34.0,30.4,67,49,26,0.00,40.00,11,1,15,0.00
2013-5-4,84.4,62.0,42.6,43.7,37.8,34.5,75,46,17,0.00,40.00,6,0,7,0.00
2013-5-5,79.5,62.5,48.7,47.7,43.3,37.2,73,52,29,0.00,40.00,11,1,11,0.00
2013-5-6,73.9,61.7,49.3,53.2,48.0,43.3,81,62,44,0.00,40.00,4,0,5,0.00
2013-5-7,83.5,67.3,50.2,56.1,50.1,44.8,84,58,33,0.00,40.00,9,1,9,0.00
2013-5-8,76.8,68.9,62.4,64.8,59.9,50.5,85,73,57,0.00,40.00,13,2,13,0.00
2013-5-9,71.8,68.2,61.7,68.7,63.6,57.6,90,85,77,0.00,40.00,18,2,18,0.61
2013-5-10,84.7,68.8,60.4,66.0,60.0,57.0,91,76,48,0.00,40.00,14,1,14,0.81
2013-5-11,79.0,68.3,60.6,60.1,55.8,49.8,86,66,40,0.00,40.00,14,1,14,0.00
2013-5-12,79.0,66.0,55.2,55.2,51.4,48.7,81,61,38,0.00,40.00,7,0,7,0.00
2013-5-13,85.6,67.6,49.6,55.0,49.5,43.9,82,56,29,0.00,40.00,12,1,12,0.00
2013-5-14,86.5,72.0,58.6,64.4,57.2,51.1,82,62,33,0.00,40.00,13,2,13,0.00
2013-5-15,85.5,73.9,64.2,68.5,65.2,59.9,90,76,53,0.00,40.00,13,2,13,0.22
2013-5-16,92.1,79.4,71.1,72.5,68.3,64.8,85,70,49,0.00,40.00,10,2,10,0.00
2013-5-17,96.4,82.0,71.8,72.3,69.9,67.6,87,69,40,0.00,40.00,13,2,13,0.00
2013-5-18,92.3,79.9,70.3,70.5,67.4,64.6,86,67,47,0.00,40.00,14,2,14,0.00
2013-5-19,89.1,79.0,70.0,71.4,67.3,63.5,85,68,54,0.00,40.00,15,2,15,0.00
2013-5-20,91.6,79.8,70.5,72.7,68.1,65.3,85,69,49,0.00,40.00,14,2,14,0.00
2013-5-21,84.0,76.0,70.7,71.8,66.6,57.2,85,73,59,0.00,40.00,12,1,12,0.00
2013-5-22,91.6,75.9,57.9,66.2,58.5,51.4,80,57,36,0.00,40.00,8,1,8,0.00
2013-5-23,86.2,77.6,71.1,71.6,68.4,65.3,87,74,57,0.00,40.00,9,1,9,0.00
2013-5-24,77.0,70.3,67.1,69.6,65.3,61.9,91,84,77,0.00,40.00,5,0,5,0.33
2013-5-25,78.1,71.5,67.1,69.1,66.6,64.6,93,85,72,0.00,40.00,10,2,15,0.22
2013-5-26,82.0,73.6,70.2,72.3,67.9,64.2,89,83,65,0.00,40.00,11,1,11,0.02
2013-5-27,84.7,74.5,68.7,72.0,68.1,64.9,89,81,63,0.00,40.00,13,2,13,0.00
2013-5-28,85.6,76.3,69.4,70.2,67.0,64.2,84,73,56,0.00,40.00,14,3,18,0.00
2013-5-29,82.9,75.7,71.8,71.4,68.5,66.4,84,78,67,0.00,40.00,21,3,21,0.00
2013-5-30,86.5,76.8,71.8,72.5,69.1,66.7,89,78,61,0.00,40.00,13,2,15,0.00
2013-5-31,90.7,79.9,72.5,75.2,71.0,67.6,85,75,58,0.00,40.00,13,2,13,0.00
2013-6-1,93.4,81.7,73.8,74.5,70.8,68.4,83,71,50,0.00,40.00,11,2,11,0.00
2013-6-2,87.3,77.2,69.4,71.6,62.7,57.6,85,64,37,0.00,40.00,11,1,11,0.14
2013-6-3,91.9,76.7,62.4,67.6,62.7,57.4,86,64,44,0.00,40.00,8,1,8,0.00
2013-6-4,93.2,79.4,68.2,66.6,63.7,60.1,87,61,39,0.00,40.00,9,1,9,0.00
2013-6-5,93.9,79.9,68.7,67.3,64.5,60.1,86,62,39,0.00,40.00,13,1,13,0.00
2013-6-6,94.8,80.7,69.4,66.7,64.0,60.8,83,59,37,0.00,40.00,11,1,11,0.00
2013-6-7,78.1,72.8,66.4,63.0,61.3,58.5,80,68,56,0.00,40.00,7,0,8,0.00
2013-6-8,86.7,74.2,59.9,68.4,62.0,54.3,83,67,52,0.00,40.00,11,1,11,0.00
2013-6-9,91.6,77.4,71.1,72.0,67.7,64.6,85,73,48,0.00,40.00,8,1,8,0.41
2013-6-10,93.7,78.7,66.9,71.8,66.3,62.2,91,69,38,0.00,40.00,9,0,9,0.00
2013-6-11,92.8,79.8,72.1,69.8,67.9,65.8,87,69,44,0.00,40.00,13,1,13,0.00
2013-6-12,91.6,79.9,72.3,70.9,68.5,64.4,88,70,47,0.00,40.00,10,2,10,0.00
2013-6-13,92.1,78.0,73.0,72.1,69.1,63.3,87,75,48,0.00,40.00,11,1,11,0.04
2013-6-14,80.4,75.2,71.8,72.1,69.2,66.7,91,82,69,0.00,40.00,9,0,9,0.06
2013-6-15,87.6,77.5,72.9,99.9,70.4,67.3,92,75,55,0.00,40.00,9,-21,9,0.04
2013-6-16,93.7,81.7,73.2,70.9,69.0,67.3,87,68,44,0.00,40.00,12,1,12,0.00
2013-6-17,94.8,82.9,73.4,72.0,69.5,67.8,84,66,44,0.00,40.00,7,1,7,0.00
2013-6-18,91.2,80.2,69.6,72.1,68.1,65.1,88,68,48,0.00,40.00,4,0,4,0.24
2013-6-19,94.1,81.9,72.1,69.8,66.5,63.0,86,62,39,0.00,40.00,12,1,12,0.00
2013-6-20,91.8,81.5,72.3,70.0,67.0,64.0,83,63,43,0.00,40.00,11,2,12,0.00
2013-6-21,93.4,82.3,73.8,70.2,66.7,60.8,82,62,39,0.00,40.00,12,2,12,0.00
2013-6-22,93.6,82.5,73.2,68.9,66.1,62.2,81,60,39,0.00,40.00,13,2,13,0.00
2013-6-23,92.8,81.8,71.8,68.5,65.7,60.3,83,60,40,0.00,40.00,11,2,11,0.00
2013-6-24,93.6,82.0,72.3,70.2,67.3,64.9,84,63,42,0.00,40.00,15,2,15,0.00
2013-6-25,95.9,83.8,74.8,69.1,67.5,63.0,80,60,39,0.00,40.00,18,3,18,0.00
2013-6-26,96.4,83.2,74.8,73.0,68.8,65.8,82,64,43,0.00,40.00,9,2,11,0.00
2013-6-27,100.0,85.0,73.2,69.6,63.4,52.7,81,53,23,0.00,40.00,8,1,8,0.00
2013-6-28,102.6,85.6,71.8,70.5,64.0,59.0,82,52,28,0.00,40.00,6,0,6,0.00
2013-6-29,103.8,88.2,72.1,68.0,62.2,58.1,68,45,25,0.00,40.00,5,0,5,0.00
2013-6-30,85.8,77.7,69.6,70.2,64.6,57.9,87,66,43,0.00,40.00,13,0,13,0.35
2013-7-1,85.6,74.9,66.9,65.3,58.9,53.1,82,59,37,0.00,40.00,8,1,8,0.00
2013-7-2,90.7,73.8,60.4,60.3,54.1,46.4,80,55,26,0.00,40.00,13,-2,13,0.00
2013-7-3,93.6,76.7,60.6,55.9,49.8,46.2,71,42,21,0.00,40.00,6,0,6,0.00
2013-7-4,91.4,77.9,65.1,62.8,56.2,50.5,77,50,29,0.00,40.00,7,0,7,0.00
2013-7-5,94.6,80.3,66.0,65.5,58.9,55.2,81,51,28,0.00,40.00,9,1,9,0.00
2013-7-6,94.8,80.8,68.9,66.7,61.6,57.9,80,55,30,0.00,40.00,7,1,7,0.00
2013-7-7,94.6,82.4,71.2,69.8,66.4,59.7,85,61,37,0.00,40.00,7,1,7,0.00
2013-7-8,85.8,79.0,74.1,71.6,68.6,64.9,83,71,52,0.00,40.00,8,1,8,0.00
2013-7-9,94.6,81.8,72.3,70.2,67.9,52.2,87,65,29,0.00,40.00,10,1,11,0.00
2013-7-10,97.9,84.1,73.0,70.7,67.1,61.0,84,60,31,0.00,40.00,6,-1,57,0.00
2013-7-11,97.7,84.0,74.5,71.2,66.6,61.5,81,58,33,0.00,40.00,6,1,6,0.00
2013-7-12,97.5,83.6,72.1,70.2,63.0,57.9,79,53,29,0.00,40.00,8,1,8,0.00
2013-7-13,99.3,84.7,70.9,66.0,61.7,57.4,73,49,29,0.00,40.00,6,0,6,0.00
2013-7-14,95.9,81.9,75.0,70.0,64.8,59.4,73,57,34,0.00,40.00,7,-1,7,0.10
2013-7-15,75.4,72.6,68.0,71.1,67.5,63.5,89,84,73,0.00,40.00,6,0,6,0.19
2013-7-16,81.1,74.7,70.7,72.1,69.0,66.9,91,83,68,0.00,40.00,12,1,12,0.24
2013-7-17,82.9,74.1,70.3,73.4,68.6,66.6,92,83,64,0.00,40.00,7,1,7,0.16
2013-7-18,87.6,76.6,70.0,73.2,68.2,65.1,91,77,49,0.00,40.00,9,0,9,0.41
2013-7-19,93.0,79.9,69.6,70.0,66.1,62.1,90,66,39,0.00,40.00,9,0,9,0.00
2013-7-20,92.1,80.8,70.7,70.0,66.7,62.8,87,64,41,0.00,40.00,9,1,9,0.00
2013-7-21,91.8,80.9,72.7,71.2,68.8,65.3,86,68,48,0.00,40.00,11,1,11,0.00
2013-7-22,93.4,83.1,75.0,72.7,70.0,66.4,84,67,46,0.00,40.00,11,2,11,0.00
2013-7-23,97.3,84.9,77.0,72.1,67.7,60.4,80,60,31,0.00,40.00,11,2,11,0.00
2013-7-24,95.5,84.2,74.5,73.2,68.9,63.7,83,63,38,0.00,40.00,6,1,6,0.00
2013-7-25,97.5,85.5,74.8,69.8,66.5,59.9,81,56,33,0.00,40.00,9,1,9,0.00
2013-7-26,98.1,85.8,74.1,70.3,67.3,64.4,81,56,34,0.00,40.00,7,1,7,0.00
2013-7-27,91.6,82.5,75.4,69.4,66.9,61.9,73,60,46,0.00,40.00,9,1,9,0.00
2013-7-28,95.7,81.5,69.3,73.0,67.2,63.5,84,64,41,0.00,40.00,10,1,10,0.00
2013-7-29,98.4,85.3,76.3,71.1,67.4,60.3,81,59,30,0.00,40.00,13,2,13,0.00
2013-7-30,176.4,85.5,74.8,99.9,67.1,60.4,79,57,30,0.00,40.00,10,-10,10,0.00
2013-7-31,102.0,86.5,74.3,67.8,63.3,57.2,75,50,25,0.00,40.00,8,-14,8,0.00
2013-8-1,177.1,89.3,77.2,99.9,66.3,62.6,69,44,33,0.00,40.00,6,-72,6,0.00
2013-8-2,100.9,86.7,74.5,66.0,61.6,55.6,66,45,26,0.00,40.00,9,1,9,0.00
2013-8-3,100.0,87.0,74.5,99.9,64.5,59.0,78,48,28,0.00,40.00,9,-17,9,0.00
2013-8-4,98.1,85.7,74.8,70.7,68.1,64.6,81,58,38,0.00,40.00,11,2,11,0.00
2013-8-5,100.9,86.4,73.8,71.6,65.6,61.7,76,53,30,0.00,40.00,9,1,9,0.00
2013-8-6,102.6,86.9,73.9,71.8,66.6,60.4,81,55,29,0.00,40.00,29,2,29,0.00
2013-8-7,103.6,88.2,74.5,72.1,66.4,57.6,81,52,29,0.00,40.00,8,1,8,0.00
2013-8-8,101.8,87.0,74.3,69.8,65.5,58.3,80,53,25,0.00,40.00,9,1,11,0.00
2013-8-9,101.8,86.7,74.1,69.6,61.3,51.1,80,48,22,0.00,40.00,8,1,8,0.00
2013-8-10,99.3,83.9,73.2,70.3,64.7,54.0,73,54,32,0.00,40.00,11,1,11,0.00
2013-8-11,97.2,82.9,72.7,71.2,67.7,64.0,82,62,37,0.00,40.00,7,1,9,0.00
2013-8-12,95.7,83.4,73.2,69.6,67.1,64.4,85,60,38,0.00,40.00,13,1,13,0.00
2013-8-13,102.4,87.0,75.0,69.3,65.7,60.8,79,52,28,0.00,40.00,10,1,10,0.00
2013-8-14,100.6,85.7,76.8,70.0,67.7,61.9,76,57,32,0.00,40.00,13,1,13,0.00
2013-8-15,92.5,79.9,72.3,72.7,67.9,63.5,82,68,39,0.00,40.00,15,1,15,0.00
2013-8-16,92.1,78.1,69.4,71.8,64.6,57.9,87,66,32,0.00,40.00,12,1,12,0.00
2013-8-17,95.2,80.0,66.6,69.8,60.7,55.2,80,55,30,0.00,40.00,10,1,10,0.00
2013-8-18,95.5,80.7,66.0,64.2,58.3,55.6,70,49,30,0.00,40.00,11,1,11,0.00
2013-8-19,95.2,81.3,67.6,63.3,59.6,56.5,70,50,32,0.00,40.00,6,1,6,0.00
2013-8-20,95.4,81.6,68.9,65.8,61.0,55.4,74,53,27,0.00,40.00,10,1,10,0.00
2013-8-21,95.2,81.8,72.3,70.0,66.3,63.3,82,61,36,0.00,40.00,12,1,12,0.00
2013-8-22,95.5,82.5,71.8,71.1,66.0,62.6,84,60,37,0.00,40.00,5,0,5,0.00
2013-8-23,96.6,83.5,72.9,70.0,66.0,62.6,80,58,35,0.00,40.00,8,1,8,0.00
2013-8-24,97.0,84.1,73.6,69.3,65.9,62.4,77,56,36,0.00,40.00,7,1,7,0.00
2013-8-25,95.2,83.6,72.7,70.2,66.8,63.9,80,59,38,0.00,40.00,10,1,10,0.00
2013-8-26,90.1,79.3,73.9,70.9,67.7,65.5,84,69,46,0.00,40.00,11,1,11,0.00
2013-8-27,87.3,77.5,71.4,74.8,69.1,64.6,90,76,52,0.00,40.00,8,1,9,0.92
2013-8-28,94.6,81.3,70.9,70.0,67.0,63.7,89,65,37,0.00,40.00,8,1,9,0.02
2013-8-29,96.8,83.2,72.5,70.3,65.5,60.4,85,58,32,0.00,40.00,6,0,6,0.00
2013-8-30,99.3,84.2,72.1,68.5,64.5,61.0,77,55,32,0.00,40.00,4,0,5,0.00
2013-8-31,98.4,85.5,72.7,69.8,65.3,63.0,77,53,34,0.00,40.00,6,0,6,0.00
2013-9-1,99.5,85.6,74.8,71.1,66.2,63.0,79,55,33,0.00,40.00,6,0,6,0.00
2013-9-2,97.0,84.4,76.5,71.6,67.5,63.5,77,58,39,0.00,40.00,10,1,10,0.00
2013-9-3,99.0,83.6,71.6,70.2,66.2,60.4,85,60,32,0.00,40.00,6,0,6,0.00
2013-9-4,96.4,81.3,73.9,70.7,66.9,64.2,83,63,37,0.00,40.00,9,0,9,0.00
2013-9-5,96.1,83.2,72.5,70.7,66.9,63.1,83,60,38,0.00,40.00,7,1,7,0.00
2013-9-6,95.4,83.2,73.0,71.1,66.8,63.5,82,60,38,0.00,40.00,6,1,6,0.00
2013-9-7,94.3,80.9,70.7,71.4,67.4,63.7,82,65,40,0.00,40.00,8,1,9,0.00
2013-9-8,90.0,77.5,73.0,72.1,68.6,66.4,86,75,50,0.00,40.00,13,0,13,0.02
2013-9-9,90.3,77.4,69.8,70.2,67.0,64.9,89,72,44,0.00,40.00,9,1,11,0.02
2013-9-10,84.7,75.0,71.2,72.5,69.0,66.7,91,82,60,0.00,40.00,10,1,12,0.12
2013-9-11,89.4,77.3,69.6,73.8,68.3,62.8,93,76,47,0.00,40.00,5,0,7,0.02
2013-9-12,92.5,78.9,68.7,69.8,65.2,60.8,90,66,39,0.00,40.00,6,0,6,0.00
2013-9-13,94.5,80.8,70.3,69.3,62.9,57.9,84,58,31,0.00,40.00,9,1,9,0.00
2013-9-14,93.9,80.0,67.6,66.6,62.6,59.5,81,58,37,0.00,40.00,10,1,10,0.00
2013-9-15,89.4,79.8,70.5,69.3,66.3,64.8,85,65,46,0.00,40.00,7,1,7,0.00
2013-9-16,89.4,77.6,71.8,70.3,68.3,65.7,85,74,49,0.00,40.00,10,1,10,0.02
2013-9-17,87.8,78.2,72.1,71.6,68.8,65.5,89,74,49,0.00,40.00,8,1,8,0.00
2013-9-18,91.0,79.1,72.1,70.9,68.0,64.8,88,71,45,0.00,40.00,8,1,8,0.00
2013-9-19,86.2,77.7,73.8,75.0,70.0,67.5,86,78,61,0.00,40.00,9,0,9,0.06
2013-9-20,78.4,73.0,68.9,72.3,69.0,65.5,91,87,80,0.00,40.00,13,1,13,1.22
2013-9-21,84.9,72.5,62.8,65.3,59.7,51.4,89,67,36,0.00,40.00,10,2,10,0.02
2013-9-22,86.4,68.2,54.3,55.9,50.9,46.8,82,58,29,0.00,40.00,8,0,8,0.00
2013-9-23,91.8,71.6,54.5,56.3,51.8,48.4,82,54,26,0.00,40.00,5,0,5,0.00
2013-9-24,95.9,76.4,59.7,62.4,57.4,52.9,79,55,31,0.00,40.00,8,0,8,0.00
2013-9-25,94.3,78.2,65.1,65.7,60.3,57.7,79,57,33,0.00,40.00,6,0,6,0.00
2013-9-26,93.2,78.5,68.4,69.4,60.3,55.4,81,56,32,0.00,40.00,7,1,7,0.00
2013-9-27,88.7,79.1,73.9,73.0,70.1,66.9,83,75,56,0.00,40.00,11,2,11,0.00
2013-9-28,88.3,78.5,69.1,73.2,70.5,63.3,86,77,59,0.00,40.00,11,2,11,0.00
2013-9-29,78.1,69.0,63.5,64.4,60.8,57.0,84,76,59,0.00,40.00,7,1,7,0.00
2013-9-30,93.7,72.2,55.0,65.3,57.1,50.4,87,63,30,0.00,40.00,4,0,7,0.00
2013-10-1,93.0,77.7,64.6,70.3,64.1,57.2,87,65,41,0.00,40.00,8,1,8,0.00
2013-10-2,92.3,80.0,72.9,71.6,68.1,64.0,88,69,45,0.00,40.00,10,1,10,0.00
2013-10-3,93.0,80.3,71.2,69.4,67.0,63.7,84,66,43,0.00,40.00,12,2,12,0.00
2013-10-4,92.5,79.7,72.3,69.4,67.0,65.3,83,67,45,0.00,40.00,14,2,14,0.00
2013-10-5,86.2,73.7,61.0,68.9,60.7,43.2,82,65,44,0.00,40.00,9,1,10,0.00
2013-10-6,61.0,60.3,59.0,48.7,45.1,43.7,68,57,53,0.00,40.00,5,1,5,0.00
2013-10-16,59.7,58.9,57.2,55.8,55.0,53.4,87,87,86,0.00,40.00,3,0,4,0.00
2013-10-17,77.2,61.3,49.6,53.8,50.4,46.2,89,70,41,0.00,40.00,6,0,6,0.00
2013-10-18,77.7,65.0,57.6,64.0,57.8,50.9,88,78,62,0.00,40.00,7,0,7,0.00
2013-10-19,71.4,57.0,46.9,53.8,43.6,40.1,81,64,34,0.00,40.00,9,1,9,0.00
2013-10-20,77.9,58.6,45.0,53.6,46.3,39.7,85,66,42,0.00,40.00,9,1,9,0.00
2013-10-21,79.9,66.8,57.0,66.2,57.5,48.7,87,73,58,0.00,40.00,6,0,6,0.00
2013-10-22,79.2,63.0,51.8,51.6,45.4,39.9,78,57,27,0.00,40.00,9,1,9,0.00
2013-10-23,84.7,62.6,46.0,52.0,44.0,39.7,81,56,25,0.00,40.00,7,0,7,0.00
2013-10-24,84.7,63.5,48.0,50.9,46.1,41.9,82,57,28,0.00,40.00,7,0,7,0.00
2013-10-25,77.7,63.6,50.5,59.9,52.5,45.1,84,68,47,0.00,40.00,11,1,11,0.00
2013-10-26,78.1,69.3,64.9,64.8,61.2,59.5,86,76,61,0.00,40.00,10,1,10,0.00
2013-10-27,80.2,69.0,63.0,64.0,61.0,58.1,87,76,57,0.00,40.00,5,0,5,0.00
2013-10-28,83.3,71.8,65.8,67.3,63.8,60.8,90,77,55,0.00,40.00,11,2,11,0.00
2013-10-29,80.8,73.7,69.6,68.5,66.0,63.1,87,77,62,0.00,40.00,11,3,14,0.00
2013-10-30,78.6,73.1,70.0,70.2,68.1,64.9,91,85,73,0.00,40.00,9,1,9,0.04
2013-10-31,83.8,70.7,53.4,68.0,54.3,39.6,90,62,25,0.00,40.00,5,0,5,0.08
2013-11-1,85.8,63.8,46.6,52.5,42.0,37.9,80,50,21,0.00,40.00,11,1,11,0.00
2013-11-2,76.6,61.4,49.6,41.9,38.7,34.0,66,46,23,0.00,40.00,10,1,10,0.00
2013-11-3,73.2,56.8,41.5,48.2,39.0,34.3,79,54,31,0.00,40.00,9,1,17,0.00
2013-11-4,63.1,61.0,59.5,58.6,53.4,48.2,85,76,64,0.00,40.00,9,1,9,0.08
2013-12-6,31.8,30.2,27.3,25.5,23.8,20.8,78,77,75,0.00,40.00,7,1,7,0.02
2013-12-7,32.2,28.3,25.0,22.6,20.5,17.6,77,72,66,0.00,40.00,11,1,11,0.00
2013-12-8,61.7,39.6,28.2,43.7,31.7,21.4,86,74,50,0.00,40.00,6,0,6,0.02
2013-12-9,42.4,37.7,31.6,38.8,34.1,27.9,89,86,80,0.00,40.00,12,1,12,0.02
2013-12-10,55.6,39.3,28.2,32.2,26.5,23.5,85,63,35,0.00,40.00,9,1,9,0.02
2013-12-11,62.6,44.1,28.9,35.6,28.7,22.8,79,58,34,0.00,40.00,5,0,5,0.00
2013-12-12,60.3,44.9,32.7,36.0,30.8,25.2,75,59,39,0.00,40.00,6,1,6,0.00
2013-12-13,51.6,47.2,43.3,47.8,40.0,32.2,88,77,61,0.00,40.00,8,1,8,0.04
2013-12-14,60.4,48.6,39.0,43.9,35.3,27.1,88,63,43,0.00,40.00,13,2,13,0.00
2013-12-15,69.1,48.4,31.6,35.2,29.0,23.7,74,50,26,0.00,40.00,4,0,5,0.00
2013-12-16,73.2,49.4,30.9,37.9,30.7,24.1,78,53,25,0.00,40.00,10,0,10,0.00
2013-12-17,78.6,53.3,34.2,43.0,33.2,27.1,78,51,22,0.00,40.00,3,0,3,0.00
2013-12-18,70.5,53.2,37.0,54.0,42.0,29.8,86,67,45,0.00,40.00,13,1,13,0.00
2013-12-19,67.3,60.7,55.9,57.7,54.2,50.0,88,80,67,0.00,40.00,19,2,19,0.00
2013-12-20,69.6,64.5,60.4,63.7,59.7,55.2,90,84,73,0.00,40.00,10,1,10,0.00
2013-12-21,71.4,54.5,45.1,58.8,42.6,35.4,92,68,33,0.00,40.00,7,1,7,0.73
2013-12-22,58.8,46.0,37.8,41.5,33.9,25.9,78,63,43,0.00,40.00,8,1,8,0.00
2013-12-23,63.5,44.6,30.4,32.5,27.5,23.5,78,54,27,0.00,40.00,6,0,6,0.00
2013-12-24,64.4,46.0,29.7,35.4,27.6,23.7,79,52,29,0.00,40.00,9,1,9,0.00
2013-12-25,65.8,49.0,37.2,50.4,39.3,29.3,83,70,55,0.00,40.00,9,1,9,0.00
2013-12-26,59.5,47.4,35.2,40.3,36.2,29.5,82,66,48,0.00,40.00,5,0,6,0.00
2013-12-27,55.2,49.1,43.0,45.9,40.9,36.9,86,74,57,0.00,40.00,5,0,5,0.02
2013-12-28,64.9,49.7,38.5,48.6,42.0,34.2,86,75,54,0.00,40.00,9,1,9,0.00
2013-12-29,61.3,48.5,31.8,50.7,41.7,27.0,83,78,67,0.00,40.00,10,1,10,0.00
2013-12-30,51.1,39.6,30.0,30.2,26.8,22.1,82,61,42,0.00,40.00,6,1,6,0.00
2013-12-31,64.6,45.6,34.0,37.0,31.1,27.5,77,59,33,0.00,40.00,6,0,6,0.00
2014-1-1,53.4,39.0,36.3,37.2,29.8,28.2,73,70,54,0.00,40.00,2,0,2,0.00
2014-1-2,51.6,40.4,32.4,25.9,24.1,21.9,65,53,36,0.00,40.00,4,0,4,0.00